ICO G1
Last updated on Tue Sep 22 2026 00:03:11 GMT+0000 (Coordinated Universal Time)
1 32763U 08016A 26264.48375839 -.00000172 00000+0 00000+0 0 9992
2 32763 5.5428 35.8288 0002665 132.0162 273.8331 1.00274813 67517
Next 0 passes for location: London (51.5072 / 0.1276)
No passes found over London.